Starlink 5510

operational
NORAD ID: 55647 Int'l Des: 2023-021 Owner: SPXS Country: US Constellation: starlink
LEOCIRCULAR

Starlink 5510について

説明を読み込み中...

リアルタイム位置

3D地球を読み込み中...

次回通過

高度履歴

Altitude vs Time

uPlot chart will show altitude changes over time

軌道要素

1 55647U 23021V 25258.30293637 .00000453 00000-0 45802-4 0 9995
2 55647 69.9982 266.5253 0003616 267.4678 92.6068 14.98331864142529
Epoch: Sep 15, 2025 • Age: 6 hours

現在のステータス

高度 588.4 km
速度 7.57 km/s
衛星直下点 -48.68°S, 45.14°E
打ち上げ日 Feb 17, 2023
運用期間 2.5 years
タイプ internet

技術仕様

分類 Payload
質量 305.00 kg
乾燥質量 290.00 kg
総質量 305.00 kg
長さ 0.20 m
直径 2.80 m
スパン 9.00 m
形状 Box + pan
製造者 SPXS
バスタイプ Starlink
フェーズステータス In Orbit
所有者/国 SPXS/US

大規模コンステレーション

Loading constellations...